Погода в Болгатанге

Гана     10°47′31″N   0°51′31″E
темп.,
°C
ветер,
м/с
пор.,
м/с
влажн.,
%
обл.,
%
осадки,
мм/ч
давл.,
гПа
погр.,
м
15 мая, сб
сб1500:00+32ю39435 0.0 1008416
03:00+30юз13525 0.0 1007133
06:00+29ююз3755100 0.0 1009535
09:00+33ююз45442 0.0 1011944
12:00+38ю443118 0.0 10092079
15:00+40ююв252490 0.0 10053662
18:00+33вюв71043100 0.1 1006790
21:00+30ссз125568 1.8 1009131
16 мая, вс
вс1600:00+28ююв61155100 3.2 1011542
03:00+28юз386372 0.1 1008401
06:00+27юз266990 0.1 1010423
09:00+32ююз345140 0.0 1011845
12:00+37ююз333463 0.0 10091639
15:00+39з232764 0.0 10052483
18:00+37ссз113078 0.1 1005274
21:00+31юз35504 1.1 1008158
17 мая, пн
пн1700:00+31ююв374826 1.1 1008185
03:00+31ю4114891 0.0 1007579
06:00+29ююз4857100 0.0 1009681
09:00+33ююз454858 0.0 10111028
12:00+37ююз333561 0.0 10091839
15:00+40ю262692 0.0 10053239
18:00+29сз6116076 1.5 1006274
21:00+31юв375025 0.9 1009349
18 мая, вт
вт1800:00+29ю395773 0.9 1009309
03:00+30ю5115785 0.0 1008783
06:00+28юз41068100 0.0 1010734
09:00+31ююз575572 0.0 10121067
12:00+36ююз444095 0.0 10101537
15:00+38ю333077 0.0 10072061
18:00+37ю233237 0.0 1007251
21:00+34ююз26387 0.0 1009169
19 мая, ср
ср1900:00+30ю5125386 0.3 1009424
03:00+29ю41047100 0.5 1009436
06:00+28юз275910 1.4 1011344
09:00+33юз56485 0.0 10111051
12:00+37ююз333529 0.0 10101878
15:00+40ююв232733 0.0 10062512
18:00+37ю463015 0.0 1007535
21:00+24вюв61373100 12.5 1014405